Location: Albuquerque Trailhead
(34.7934°N, 106.3736°W)
Time: 20:56:07
(UTC+00:00)

CAS-4A - Pass Details

Date: 02 April 2023
Orbit: 506 x 522 km, 43.0° (Epoch: 31 May)

Event Time Altitude Azimuth Distance (km) Brightness Sun altitude
Exits shadow 08:42:12 -3° 65° (ENE) 2,961 ? -44.7°
Enters shadow 09:41:52 -59° 245° (WSW) 11,468 ? -36.5°
Sets 10:21:09 0° 60° (ENE) 2,640 ? -29.9°
